GW4032 Weather Reports


Display with metric or nautical units.
time (UTC)temp
F
wind
direction
speed
MPH
gust
MPH
rain 1hr
in
rain 24hr
in
rain mn
in
humidity
%
barometer
mb
20260510094814 64 68 2.0 2.0 0.00 0.00 0.00 74 1002.0
20260510094314 65 159 1.0 1.0 0.00 0.00 0.00 71 1002.0
20260510093814 65 183 0.0 0.0 0.00 0.00 0.00 70 1002.0
20260510093314 65 184 0.0 0.0 0.00 0.00 0.00 69 1002.0
20260510092814 66 190 1.0 1.0 0.00 0.00 0.00 69 1002.0
20260510092314 66 184 1.0 1.0 0.00 0.00 0.00 69 1002.0
20260510091815 65 180 1.0 1.0 0.00 0.00 0.00 69 1002.0
20260510091314 65 187 1.0 1.0 0.00 0.00 0.00 69 1002.0
20260510090814 65 187 0.0 0.0 0.00 0.00 0.00 68 1002.0
20260510090315 65 188 0.0 0.0 0.00 0.00 0.00 68 1002.0
20260510085814 65 194 1.0 1.0 0.00 0.00 0.00 68 1002.0
20260510085315 65 194 1.0 1.0 0.00 0.00 0.00 68 1002.0
20260510084814 65 194 1.0 1.0 0.00 0.00 0.00 67 1002.0
20260510084314 66 189 1.0 1.0 0.00 0.00 0.00 67 1002.0
20260510083815 66 190 1.0 1.0 0.00 0.00 0.00 67 1002.0
20260510083314 66 208 1.0 1.0 0.00 0.00 0.00 66 1002.0
20260510082814 66 207 1.0 1.0 0.00 0.00 0.00 66 1002.0
20260510082314 66 205 2.0 3.0 0.00 0.00 0.00 66 1002.0
20260510081817 66 196 2.0 2.0 0.00 0.00 0.00 66 1002.0
20260510081314 66 200 3.0 3.0 0.00 0.00 0.00 66 1002.0
20260510080814 65 187 2.0 2.0 0.00 0.00 0.00 68 1001.0
20260510080314 66 204 2.0 2.0 0.00 0.00 0.00 66 1001.0
20260510075814 65 197 2.0 3.0 0.00 0.00 0.00 66 1001.0
20260510075314 64 193 1.0 1.0 0.00 0.00 0.00 68 1001.0
20260510074814 64 183 0.0 1.0 0.00 0.00 0.00 68 1001.0
20260510074316 65 200 0.0 0.0 0.00 0.00 0.00 68 1001.0
20260510073814 65 185 0.0 0.0 0.00 0.00 0.00 67 1001.0
20260510073314 65 202 1.0 2.0 0.00 0.00 0.00 67 1001.0
20260510072814 65 203 1.0 1.0 0.00 0.00 0.00 66 1001.0
20260510072314 65 186 0.0 0.0 0.00 0.00 0.00 66 1001.0
20260510071814 66 180 1.0 1.0 0.00 0.00 0.00 65 1001.0
20260510071314 66 181 2.0 2.0 0.00 0.00 0.00 65 1001.0
20260510070815 66 185 1.0 3.0 0.00 0.00 0.00 65 1001.0
20260510070314 66 188 2.0 2.0 0.00 0.00 0.00 65 1001.0
20260510065814 66 180 2.0 2.0 0.00 0.00 0.00 65 1001.0
20260510065314 66 192 1.0 1.0 0.00 0.00 0.00 65 1001.0
20260510064814 66 174 1.0 1.0 0.00 0.00 0.00 66 1001.0
20260510064314 66 183 1.0 2.0 0.00 0.00 0.00 66 1001.0
20260510063815 66 192 1.0 1.0 0.00 0.00 0.00 65 1001.0
20260510063314 66 178 1.0 1.0 0.00 0.00 0.00 65 1002.0
20260510062814 66 184 1.0 2.0 0.00 0.00 0.00 64 1002.0
20260510062314 66 191 2.0 2.0 0.00 0.00 0.00 64 1002.0
20260510061814 66 191 2.0 2.0 0.00 0.00 0.00 64 1002.0
20260510061314 67 211 2.0 2.0 0.00 0.00 0.00 63 1002.0
20260510060815 67 198 3.0 4.0 0.00 0.00 0.00 62 1002.0
20260510060314 67 255 3.0 3.0 0.00 0.00 0.00 62 1002.0
20260510055814 67 277 2.0 2.0 0.00 0.00 0.00 63 1002.0
20260510055314 67 194 2.0 4.0 0.00 0.00 0.00 63 1002.0
20260510054814 67 195 2.0 3.0 0.00 0.00 0.00 63 1002.0
20260510054314 67 190 2.0 3.0 0.00 0.00 0.00 63 1002.0
20260510053815 67 197 2.0 2.0 0.00 0.00 0.00 64 1002.0
20260510053314 66 190 1.0 2.0 0.00 0.00 0.00 64 1001.0
20260510052814 66 202 2.0 2.0 0.00 0.00 0.00 65 1001.0
20260510052314 66 191 1.0 1.0 0.00 0.00 0.00 64 1002.0
20260510051814 67 185 1.0 2.0 0.00 0.00 0.00 63 1002.0
20260510051316 67 187 3.0 3.0 0.00 0.00 0.00 63 1002.0
20260510050814 67 187 2.0 2.0 0.00 0.00 0.00 62 1001.0
20260510050314 68 184 2.0 2.0 0.00 0.00 0.00 60 1001.0
20260510045814 69 187 3.0 3.0 0.00 0.00 0.00 60 1001.0
20260510045314 68 205 4.0 4.0 0.00 0.00 0.00 60 1001.0
20260510044814 69 193 5.0 5.0 0.00 0.00 0.00 59 1001.0
20260510044314 69 196 4.0 5.0 0.00 0.00 0.00 59 1001.0
20260510043814 69 194 4.0 4.0 0.00 0.00 0.00 59 1001.0
20260510043314 69 203 4.0 5.0 0.00 0.00 0.00 59 1001.0
20260510042815 69 190 3.0 4.0 0.00 0.00 0.00 59 1001.0
20260510042314 68 201 4.0 4.0 0.00 0.00 0.00 59 1001.0
20260510041814 69 195 3.0 3.0 0.00 0.00 0.00 58 1001.0
20260510041314 69 196 4.0 4.0 0.00 0.00 0.00 58 1001.0
20260510040814 69 195 4.0 4.0 0.00 0.00 0.00 57 1001.0
20260510040314 69 192 5.0 5.0 0.00 0.00 0.00 57 1001.0
20260510035814 69 188 4.0 4.0 0.00 0.00 0.00 56 1001.0
20260510035315 69 195 3.0 5.0 0.00 0.00 0.00 55 1001.0
20260510034814 69 202 3.0 4.0 0.00 0.00 0.00 55 1001.0
20260510034314 69 193 3.0 4.0 0.00 0.00 0.00 54 1001.0
20260510033814 70 184 4.0 5.0 0.00 0.00 0.00 53 1001.0
20260510033314 70 197 3.0 4.0 0.00 0.00 0.00 52 1001.0
20260510032816 70 191 4.0 5.0 0.00 0.00 0.00 51 1001.0
20260510032314 71 211 4.0 4.0 0.00 0.00 0.00 49 1001.0
20260510031814 71 179 5.0 5.0 0.00 0.00 0.00 48 1001.0
20260510031314 71 178 5.0 7.0 0.00 0.00 0.00 46 1000.0
20260510030814 72 193 5.0 5.0 0.00 0.00 0.00 45 1000.0
20260510030314 72 195 5.0 8.0 0.00 0.00 0.00 44 1000.0
20260510025816 73 191 7.0 7.0 0.00 0.00 0.00 43 1000.0
20260510025314 73 181 5.0 7.0 0.00 0.00 0.00 41 1000.0
20260510024814 73 187 5.0 6.0 0.00 0.00 0.00 38 1000.0
20260510024315 73 200 4.0 4.0 0.00 0.00 0.00 37 1000.0
20260510023814 72 167 0.0 1.0 0.00 0.00 0.00 38 1000.0
20260510023314 72 164 0.0 1.0 0.00 0.00 0.00 39 1000.0
20260510022815 73 153 0.0 0.0 0.00 0.00 0.00 38 1000.0
20260510022315 73 171 1.0 1.0 0.00 0.00 0.00 38 1000.0
20260510021814 74 159 1.0 1.0 0.00 0.00 0.00 38 1000.0
20260510021314 74 176 1.0 2.0 0.00 0.00 0.00 38 1000.0
20260510020814 74 171 2.0 2.0 0.00 0.00 0.00 39 1000.0
20260510020314 73 146 2.0 3.0 0.00 0.00 0.00 39 1000.0
20260510015814 73 162 2.0 2.0 0.00 0.00 0.00 41 1000.0
20260510015314 73 157 0.0 2.0 0.00 0.00 0.00 40 1000.0
20260510014814 73 178 1.0 1.0 0.00 0.00 0.00 41 1000.0
20260510014314 73 175 1.0 1.0 0.00 0.00 0.00 39 1000.0
20260510013814 72 161 0.0 0.0 0.00 0.00 0.00 41 1000.0
20260510013314 71 162 0.0 0.0 0.00 0.00 0.00 41 999.0
20260510012815 72 172 0.0 0.0 0.00 0.00 0.00 43 999.0
20260510012314 72 156 0.0 0.0 0.00 0.00 0.00 45 999.0
20260510011815 72 162 1.0 1.0 0.00 0.00 0.00 46 999.0
20260510010833 73 159 0.0 0.0 0.00 0.00 0.00 45 999.0
20260510010315 74 166 0.0 0.0 0.00 0.00 0.00 44 999.0
20260510005814 74 173 1.0 1.0 0.00 0.00 0.00 43 999.0
20260510005314 74 173 1.0 1.0 0.00 0.00 0.00 42 999.0
20260510004814 75 169 0.0 0.0 0.00 0.00 0.00 40 999.0
20260510004315 75 165 0.0 0.0 0.00 0.00 0.00 40 999.0
20260510003814 76 165 0.0 0.0 0.00 0.00 0.00 39 999.0
20260510003314 76 169 0.0 0.0 0.00 0.00 0.00 42 999.0
20260510002814 77 179 1.0 1.0 0.00 0.00 0.00 40 999.0
20260510002314 77 171 0.0 0.0 0.00 0.00 0.00 40 998.0
20260510001814 77 161 1.0 1.0 0.00 0.00 0.00 38 998.0
20260510001314 78 173 0.0 0.0 0.00 0.00 0.00 39 998.0
20260510000822 78 171 0.0 0.0 0.00 0.00 0.00 41 998.0
20260510000314 78 178 1.0 1.0 0.00 0.00 0.00 39 998.0
20260509235814 79 178 1.0 1.0 0.00 0.00 0.00 39 998.0
20260509235314 79 184 1.0 2.0 0.00 0.00 0.00 34 998.0
20260509234815 80 197 2.0 3.0 0.00 0.00 0.00 33 998.0
20260509234314 80 201 3.0 3.0 0.00 0.00 0.00 33 998.0
20260509233814 81 187 3.0 3.0 0.00 0.00 0.00 32 998.0
20260509233314 81 203 5.0 5.0 0.00 0.00 0.00 31 998.0
20260509232820 82 219 4.0 4.0 0.00 0.00 0.00 30 998.0
20260509232314 82 180 4.0 5.0 0.00 0.00 0.00 32 998.0
20260509231814 82 201 5.0 6.0 0.00 0.00 0.00 29 998.0
20260509231314 82 205 6.0 7.0 0.00 0.00 0.00 30 998.0
20260509230814 83 183 3.0 4.0 0.00 0.00 0.00 30 998.0
20260509230314 83 197 7.0 7.0 0.00 0.00 0.00 29 998.0
20260509225814 84 150 1.0 1.0 0.00 0.00 0.00 29 998.0
20260509225314 84 181 2.0 2.0 0.00 0.00 0.00 29 998.0
20260509224814 84 193 3.0 4.0 0.00 0.00 0.00 28 998.0
20260509224314 85 174 1.0 2.0 0.00 0.00 0.00 32 998.0
20260509223814 85 189 2.0 3.0 0.00 0.00 0.00 32 998.0
20260509223314 85 226 2.0 3.0 0.00 0.00 0.00 27 998.0
20260509222814 85 353 2.0 3.0 0.00 0.00 0.00 31 998.0
20260509222314 85 166 1.0 1.0 0.00 0.00 0.00 28 998.0
20260509221814 85 186 4.0 4.0 0.00 0.00 0.00 29 998.0
20260509221314 84 264 2.0 4.0 0.00 0.00 0.00 27 998.0
20260509220814 84 200 4.0 4.0 0.00 0.00 0.00 29 998.0
20260509220314 86 198 3.0 4.0 0.00 0.00 0.00 29 998.0
20260509215814 87 198 2.0 2.0 0.00 0.00 0.00 25 998.0
20260509215314 87 234 1.0 1.0 0.00 0.00 0.00 24 998.0
20260509214814 85 72 4.0 5.0 0.00 0.00 0.00 27 998.0
20260509214314 85 243 4.0 4.0 0.00 0.00 0.00 25 998.0
20260509213814 87 174 0.0 1.0 0.00 0.00 0.00 26 998.0
20260509213314 86 270 3.0 4.0 0.00 0.00 0.00 25 998.0
20260509212814 87 189 1.0 2.0 0.00 0.00 0.00 29 998.0
20260509212314 87 254 2.0 2.0 0.00 0.00 0.00 29 998.0
20260509211814 85 247 2.0 3.0 0.00 0.00 0.00 25 998.0
20260509211314 83 174 3.0 4.0 0.00 0.00 0.00 26 998.0
20260509210815 85 197 4.0 7.0 0.00 0.00 0.00 26 999.0
20260509210315 87 237 1.0 3.0 0.00 0.00 0.00 24 999.0
20260509205814 87 180 1.0 2.0 0.00 0.00 0.00 27 999.0
20260509205314 86 198 4.0 6.0 0.00 0.00 0.00 26 999.0
20260509204814 88 172 0.0 1.0 0.00 0.00 0.00 25 999.0
20260509204314 86 156 3.0 3.0 0.00 0.00 0.00 25 999.0
20260509203815 85 185 4.0 4.0 0.00 0.00 0.00 25 999.0
20260509203314 84 241 4.0 6.0 0.00 0.00 0.00 29 999.0
20260509202814 86 173 1.0 1.0 0.00 0.00 0.00 28 999.0
20260509202314 85 197 4.0 5.0 0.00 0.00 0.00 27 999.0
20260509201814 85 187 3.0 4.0 0.00 0.00 0.00 25 999.0
20260509201314 87 210 2.0 2.0 0.00 0.00 0.00 28 1000.0
20260509200814 85 321 2.0 6.0 0.00 0.00 0.00 29 1000.0
20260509200314 86 191 3.0 5.0 0.00 0.00 0.00 28 1000.0
20260509195814 85 196 2.0 3.0 0.00 0.00 0.00 28 1000.0
20260509195314 85 188 2.0 2.0 0.00 0.00 0.00 28 1000.0
20260509194814 85 36 4.0 4.0 0.00 0.00 0.00 27 1000.0
20260509194314 86 161 1.0 5.0 0.00 0.00 0.00 25 1000.0
20260509193814 83 199 2.0 4.0 0.00 0.00 0.00 28 1000.0
20260509193314 84 196 6.0 6.0 0.00 0.00 0.00 28 1000.0
20260509192815 84 148 2.0 5.0 0.00 0.00 0.00 27 1000.0
20260509192314 85 306 2.0 2.0 0.00 0.00 0.00 28 1000.0
20260509191814 84 186 2.0 6.0 0.00 0.00 0.00 30 1000.0
20260509191315 85 183 3.0 3.0 0.00 0.00 0.00 28 1000.0
20260509190816 83 242 4.0 10.0 0.00 0.00 0.00 28 1000.0
20260509190314 85 192 3.0 3.0 0.00 0.00 0.00 30 1000.0
20260509185814 83 215 2.0 3.0 0.00 0.00 0.00 25 1000.0
20260509185314 84 172 2.0 4.0 0.00 0.00 0.00 28 1000.0
20260509184814 84 238 5.0 7.0 0.00 0.00 0.00 30 1000.0
20260509184314 84 245 3.0 5.0 0.00 0.00 0.00 30 1000.0
20260509183814 85 207 3.0 3.0 0.00 0.00 0.00 31 1000.0
20260509183314 83 166 1.0 1.0 0.00 0.00 0.00 29 1000.0
20260509182814 82 204 3.0 4.0 0.00 0.00 0.00 29 1000.0
20260509182314 81 207 6.0 7.0 0.00 0.00 0.00 30 1000.0
20260509181815 82 206 7.0 7.0 0.00 0.00 0.00 31 1000.0
20260509181315 81 203 3.0 4.0 0.00 0.00 0.00 30 1000.0
20260509180814 82 188 7.0 8.0 0.00 0.00 0.00 29 1000.0
20260509180314 83 206 4.0 5.0 0.00 0.00 0.00 30 1000.0
20260509175814 84 317 3.0 4.0 0.00 0.00 0.00 32 1000.0
20260509175314 84 324 3.0 3.0 0.00 0.00 0.00 31 1000.0
20260509174814 83 218 3.0 4.0 0.00 0.00 0.00 34 1000.0
20260509174314 81 180 7.0 7.0 0.00 0.00 0.00 35 1000.0
20260509173814 82 225 2.0 4.0 0.00 0.00 0.00 33 1000.0
20260509173314 84 185 3.0 3.0 0.00 0.00 0.00 29 1000.0
20260509172815 84 212 2.0 5.0 0.00 0.00 0.00 32 1000.0
20260509172315 82 169 1.0 3.0 0.00 0.00 0.00 36 1000.0
20260509171814 81 174 3.0 3.0 0.00 0.00 0.00 35 1000.0
20260509171314 80 172 1.0 3.0 0.00 0.00 0.00 39 1000.0
20260509170814 79 203 5.0 7.0 0.00 0.00 0.00 43 1000.0
20260509170314 80 174 2.0 5.0 0.00 0.00 0.00 45 1000.0
20260509165815 80 192 3.0 3.0 0.00 0.00 0.00 43 1000.0
20260509165314 79 176 1.0 3.0 0.00 0.00 0.00 43 1000.0
20260509164815 80 186 2.0 5.0 0.00 0.00 0.00 46 1000.0
20260509164315 81 128 1.0 2.0 0.00 0.00 0.00 44 1000.0
20260509163814 81 130 1.0 1.0 0.00 0.00 0.00 47 1000.0
20260509163314 80 172 1.0 1.0 0.00 0.00 0.00 48 1000.0
20260509162814 80 147 1.0 1.0 0.00 0.00 0.00 49 1000.0
20260509162314 77 181 2.0 2.0 0.00 0.00 0.00 51 1000.0
20260509161815 78 289 3.0 3.0 0.00 0.00 0.00 51 1000.0
20260509161314 76 183 5.0 5.0 0.00 0.00 0.00 54 1000.0
20260509160814 74 181 8.0 8.0 0.00 0.00 0.00 56 1000.0
20260509160314 78 157 1.0 3.0 0.00 0.00 0.00 54 1000.0
20260509155814 78 135 1.0 2.0 0.00 0.00 0.00 55 1000.0
20260509155315 77 151 1.0 2.0 0.00 0.00 0.00 54 1000.0
20260509154814 77 223 3.0 3.0 0.00 0.00 0.00 58 1000.0
20260509154314 76 320 2.0 2.0 0.00 0.00 0.00 55 1000.0
20260509153815 74 270 2.0 4.0 0.00 0.00 0.00 58 1000.0
20260509153314 76 197 2.0 4.0 0.00 0.00 0.00 55 1000.0
20260509152814 75 143 1.0 2.0 0.00 0.00 0.00 57 1000.0
20260509152314 73 180 3.0 4.0 0.00 0.00 0.00 60 1000.0
20260509151814 74 224 1.0 3.0 0.00 0.00 0.00 60 1000.0
20260509151315 74 189 2.0 4.0 0.00 0.00 0.00 61 1000.0
20260509150815 74 170 1.0 1.0 0.00 0.00 0.00 61 1000.0
20260509150314 72 233 2.0 4.0 0.00 0.00 0.00 64 1000.0
20260509145814 71 184 4.0 4.0 0.00 0.00 0.00 65 1000.0
20260509145314 70 267 7.0 7.0 0.00 0.00 0.00 66 1000.0
20260509144814 72 174 1.0 2.0 0.00 0.00 0.00 64 1000.0
20260509144314 71 161 2.0 4.0 0.00 0.00 0.00 68 1000.0
20260509143815 71 244 2.0 2.0 0.00 0.00 0.00 67 1000.0
20260509143314 69 176 3.0 5.0 0.00 0.00 0.00 68 1000.0
20260509142814 70 160 3.0 3.0 0.00 0.00 0.00 67 1000.0
20260509142314 69 199 4.0 5.0 0.00 0.00 0.00 69 1000.0
20260509141814 69 197 3.0 3.0 0.00 0.00 0.00 70 1000.0
20260509141314 69 96 1.0 2.0 0.00 0.00 0.00 67 1000.0
20260509140814 69 238 2.0 2.0 0.00 0.00 0.00 69 1000.0
20260509140314 68 221 2.0 4.0 0.00 0.00 0.00 69 1000.0
20260509135814 69 168 1.0 1.0 0.00 0.00 0.00 70 1000.0
20260509135314 67 187 1.0 2.0 0.00 0.00 0.00 71 1000.0
20260509134814 67 209 3.0 4.0 0.00 0.00 0.00 71 1000.0
20260509134314 67 180 3.0 3.0 0.00 0.00 0.00 73 1000.0
20260509133814 66 128 1.0 1.0 0.00 0.00 0.00 75 1000.0
20260509133314 65 159 2.0 3.0 0.00 0.00 0.00 75 1000.0
20260509132814 65 227 3.0 3.0 0.00 0.00 0.00 76 1000.0
20260509132314 64 47 2.0 2.0 0.00 0.00 0.00 78 1000.0
20260509131816 63 297 3.0 4.0 0.00 0.00 0.00 79 1000.0
20260509131314 62 243 2.0 2.0 0.00 0.00 0.00 81 999.0
20260509130817 61 151 0.0 0.0 0.00 0.00 0.00 82 999.0
20260509130314 61 174 0.0 0.0 0.00 0.00 0.00 82 999.0
20260509125814 61 179 1.0 2.0 0.00 0.00 0.00 82 999.0
20260509125315 60 158 0.0 0.0 0.00 0.00 0.00 83 999.0
20260509124815 60 166 0.0 2.0 0.00 0.00 0.00 83 999.0
20260509124314 60 199 2.0 3.0 0.00 0.00 0.00 83 999.0
20260509123814 60 174 1.0 1.0 0.00 0.00 0.00 85 999.0
20260509123314 59 266 2.0 4.0 0.00 0.00 0.00 84 999.0
20260509122814 59 191 3.0 3.0 0.00 0.00 0.00 85 999.0
20260509122315 58 180 1.0 1.0 0.00 0.00 0.00 86 999.0
20260509121815 58 198 1.0 1.0 0.00 0.00 0.00 86 999.0
20260509121314 58 177 2.0 2.0 0.00 0.00 0.00 88 999.0
20260509120814 57 181 0.0 0.0 0.00 0.00 0.00 89 999.0
20260509120314 57 252 1.0 1.0 0.00 0.00 0.00 89 999.0
20260509115814 56 164 0.0 0.0 0.00 0.00 0.00 89 999.0
20260509115314 56 180 1.0 1.0 0.00 0.00 0.00 89 999.0
20260509114814 56 179 1.0 1.0 0.00 0.00 0.00 89 998.0
20260509114315 56 185 2.0 2.0 0.00 0.00 0.00 89 998.0
20260509113814 56 179 0.0 0.0 0.00 0.00 0.00 89 998.0
20260509113314 56 180 0.0 0.0 0.00 0.00 0.00 89 998.0
20260509112815 56 177 0.0 0.0 0.00 0.00 0.00 88 998.0
20260509112314 56 180 0.0 0.0 0.00 0.00 0.00 88 998.0
20260509111814 56 180 0.0 0.0 0.00 0.00 0.00 87 998.0
20260509111315 56 186 1.0 2.0 0.00 0.00 0.00 87 998.0
20260509110814 56 180 1.0 1.0 0.00 0.00 0.00 86 998.0
20260509110314 56 182 1.0 2.0 0.00 0.00 0.00 86 998.0
20260509105814 57 167 1.0 1.0 0.00 0.00 0.00 86 998.0
20260509105314 57 181 1.0 1.0 0.00 0.00 0.00 86 998.0
20260509104814 57 180 1.0 1.0 0.00 0.00 0.00 85 998.0
20260509104315 57 180 1.0 2.0 0.00 0.00 0.00 85 998.0
20260509103815 57 181 0.0 1.0 0.00 0.00 0.00 85 998.0
20260509103314 57 179 1.0 2.0 0.00 0.00 0.00 85 998.0
20260509102814 57 180 0.0 0.0 0.00 0.00 0.00 84 998.0
20260509102314 57 178 1.0 1.0 0.00 0.00 0.00 84 998.0
20260509101814 57 181 1.0 1.0 0.00 0.00 0.00 84 998.0
20260509101315 57 181 1.0 1.0 0.00 0.00 0.00 84 998.0
20260509100814 57 192 1.0 1.0 0.00 0.00 0.00 83 998.0
20260509100314 57 178 1.0 1.0 0.00 0.00 0.00 83 998.0
20260509095814 57 175 1.0 1.0 0.00 0.00 0.00 83 998.0
20260509095314 57 190 1.0 1.0 0.00 0.00 0.00 82 998.0